Regional Weather Roundup
Issued by NWS

Home | Current Version | Previous Version | Graphics & Text | Print | Product List | Glossary On
Versions: 1 2 3 4 5 6 7 8 9 10 11 12 13 14 15 16 17 18 19 20 21 22 23 24 25 26 27 28 29 30 31 32 33 34 35 36 37 38 39 40 41 42 43 44 45 46 47 48 49 50
000
ASUS43 KMKX 251920
RWRWI

WISCONSIN REGIONAL WEATHER ROUNDUP
NATIONAL WEATHER SERVICE MILWAUKEE/SULLIVAN WI
200 PM CDT THU MAY 25 2017

NOTE: "FAIR" INDICATES FEW OR NO CLOUDS BELOW 12,000 FEET WITH NO
SIGNIFICANT WEATHER AND/OR OBSTRUCTIONS TO VISIBILITY.

WIZ001-002-006>008-014>016-023>028-252000-
NORTHWEST WISCONSIN

CITY           SKY/WX    TMP DP  RH WIND       PRES   REMARKS
SUPERIOR ARPT  NOT AVBL
ASHLAND        MOSUNNY   60  46  59 NE14      29.72F
HAYWARD        PTSUNNY   68  47  46 E6        29.68F
SIREN          MOSUNNY   69  48  46 SW9       29.68S
CUMBERLAND     MOSUNNY   66  48  52 S13       29.68F
RICE LAKE      MOSUNNY   67  48  50 E10       29.69F
CHETEK         MOSUNNY   67  51  56 SE9G17    29.68F
LADYSMITH      MOSUNNY   70  49  47 NE3       29.70F
EAU CLAIRE     MOSUNNY   71  50  47 S12       29.66F
MENOMONIE      SUNNY     69  49  48 SE7       29.67F
NEW RICHMOND   MOSUNNY   68  50  51 S7G18     29.67F
OSCEOLA        CLOUDY    69  52  55 SE12      29.69F
$$

WIZ003>005-009-010-017-018-252000-
NORTH CENTRAL WISCONSIN

CITY           SKY/WX    TMP DP  RH WIND       PRES   REMARKS
MANITOWISH WTR CLOUDY    69  47  46 SE6       29.70S
ARBOR VITAE    PTSUNNY   69  47  45 SE3       29.69S
WOODRUFF       PTSUNNY   69  47  45 SE3       29.69S
RHINELANDER    MOSUNNY   71  47  42 CALM      29.69F
EAGLE RIVER    PTSUNNY   67  43  41 E6        29.69S
LAND O LAKES   CLOUDY    67  44  42 N3        29.71S
PHILLIPS       CLOUDY    68  49  49 S3        29.68F
TOMAHAWK       PTSUNNY   70  47  44 NE3       29.68F
MEDFORD        MOSUNNY   68  51  53 S6        29.68S
MERRILL        PTSUNNY   69  49  49 E6        29.68S
$$

WIZ029-030-035-036-043>047-252000-
CENTRAL WISCONSIN

CITY           SKY/WX    TMP DP  RH WIND       PRES   REMARKS
WAUSAU         MOSUNNY   68  49  50 CALM      29.66F
MOSINEE        MOSUNNY   70  48  46 CALM      29.69S
MARSHFIELD     PTSUNNY   70  52  52 E7        29.67S
STEVENS POINT  SUNNY     69  49  49 E5        29.68F
WAUPACA        PTSUNNY   72  51  48 E8        29.68S
WAUTOMA        PTSUNNY   71  51  49 NE14      29.67F
WISC RAPIDS    MOSUNNY   70  50  49 E7        29.68S
CAMP DOUGLAS   PTSUNNY   70  54  56 CALM      29.67F
$$

WIZ011>013-019>022-031-037>040-048>050-252000-
NORTHEAST WISCONSIN

CITY           SKY/WX    TMP DP  RH WIND       PRES   REMARKS
ANTIGO         PTSUNNY   66  51  58 NE3       29.69S
SHAWANO        MOSUNNY   71  53  51 E7        29.68S
OCONTO         SUNNY     66  53  61 E12G17    29.67R
STURGEON BAY   PTSUNNY   64  52  64 N12       29.67F
GREEN BAY      SUNNY     66  56  70 NE16      29.67F
MANITOWOC      SUNNY     64  53  67 NE10      29.66S
APPLETON       PTSUNNY   68  46  45 NE10      29.66S
CLINTONVILLE   CLOUDY    68  50  52 NE8       29.67S
OSHKOSH        SUNNY     67  53  61 NE8       29.67S
$$

WIZ032>034-041-042-053>061-252000-
SOUTHWEST WISCONSIN

CITY           SKY/WX    TMP DP  RH WIND       PRES   REMARKS
LA CROSSE      SUNNY     70  55  59 NW6       29.67F
SPARTA         SUNNY     68  54  59 CALM      29.68F
VIROQUA        MOSUNNY   67  52  58 MISG      29.70S
BOSCOBEL       SUNNY     70  54  56 VRB3      29.69S
PRAIRIE DU CHI SUNNY     67  51  55 CALM      29.68F
PLATTEVILLE    MOSUNNY   64  56  76 N5        29.70S
$$

WIZ056-057-062-063-064-067-068-252000-
SOUTH CENTRAL WISCONSIN

CITY           SKY/WX    TMP DP  RH WIND       PRES   REMARKS
REEDSBURG      MOSUNNY   68  54  61 NE3       29.67F
BARABOO/DELLS  PTSUNNY   69  52  54 NE6       29.68S
LONE ROCK      SUNNY     68  55  63 CALM      29.68S
MINERAL POINT  PTSUNNY   66  55  68 CALM      29.69F
MADISON        PTSUNNY   68  54  60 NE9G16    29.66F
MIDDLETON      MOSUNNY   68  53  60 NE3       29.68S
WATERTOWN      MOSUNNY   65  55  70 N10       29.66F
MONROE         PTSUNNY   64  54  68 N6        29.67F
JANESVILLE     PTSUNNY   64  54  68 VRB5      29.67F
$$

WIZ051-052-058>065-066-070>072-252000-
SOUTHEAST WISCONSIN

CITY           SKY/WX    TMP DP  RH WIND       PRES   REMARKS
MILWAUKEE      MOSUNNY   65  53  65 NE14G20   29.65S
WAUKESHA       PTSUNNY   64  52  63 N9        29.66S
MILWAUKEE/TIMM MOSUNNY   66  50  55 N12       29.65S
RACINE         SUNNY     61  51  70 N14G21    29.66S
KENOSHA        SUNNY     67  54  63 N14G22    29.64S
FOND DU LAC    MOSUNNY   67  53  61 VRB3      29.67S
SHEBOYGAN      SUNNY     64  57  78 NE13      29.65S
WEST BEND      MOSUNNY   66  50  55 NE13      29.65S
JUNEAU         MOSUNNY   65  54  68 NW6       29.68S
$$

LSZ147-162-252000-
LAKE SUPERIOR

STATION/POSITION TIME  TEMP    WIND        PRES    WAVE
                       AIR SEA DIR/SP/G            HT/PER
                 (UTC) (F)     (DEG/KT/KT) (MB)    (FT/S)
$$

LMZ867-665-643>646-252000-
LAKE MICHIGAN

STATION/POSITION TIME  TEMP    WIND        PRES    WAVE
                       AIR SEA DIR/SP/G            HT/PER
                 (UTC) (F)     (DEG/KT/KT) (MB)    (FT/S)
$$

TC  - TEMPERATURE IN CELSIUS
VSB - VISIBILITY IN STATUTE MILES
WCI - WIND CHILL INDEX
HX  - HEAT INDEX





USA.gov is the U.S. government's official web portal to all federal, state and local government web resources and services.